www.pogodaiklimat.ru

Погода и климат >> Архив погоды >> Сербия >> Ниш


ПОГОДА в Нише

  • Прогноз погоды в Нише
  • Монитор погоды в Нише

АРХИВ ПОГОДЫ в Нише

Время (UTC), дата Ветер
(напр.,м/с)
 
Видим.   Явления Облачность Т
(С)
Тd
(С)
f
(%)
Тe
(С)
Тes
(С)
Комфортность P
(гПа)
Po
(гПа)
Тmin
(С)
Tmax
(С)
R
(мм)
R24
(мм)
S
(см)
16 14.07 З 2 20 км 8/8 1000 м
[Cu med, cong]
+21.5 +14.4 64 +24 +25 комфорт 1009.3 985.8
17 14.07 З 2 20 км 8/8 1000 м
[Cu med, cong]
+20.4 +13.7 65 +23 +23 комфорт 1009.4 985.8
18 14.07 З 2 20 км 9/9 1000 м
[Cu Sc]
+19.0 +13.9 72 +21 +21 комфорт 1009.8 986.1 +23.4 0.0
19 14.07 З 1 20 км 9/9 1000 м
[Cu Sc]
+18.1 +13.9 76 +19 +19 1010.4 986.6
20 14.07 З 1 20 км 9/6 1000 м
[Sc Ac trans]
+17.8 +14.4 80 +19 +19 1011.0 987.2
21 14.07 З 1 20 км 8/5 1000 м
[Sc Ac trans]
+17.1 +13.7 80 +18 +18 1011.0 987.2
22 14.07 ЮЗ 1 20 км 9/9 1000 м
[Sc]
+16.6 +14.0 85 +17 +17 1014.0 987.3
23 14.07 штиль 0 20 км 9/9 1000 м
[Sc]
+16.6 +14.8 89 +16 +16 1011.2 987.3
00 15.07 штиль 0 20 км 9/9 1000 м
[Sc]
+16.6 +15.0 90 +16 +16 1011.0 987.1
01 15.07 штиль 0 20 км 9/9 1000 м
[Sc]
+16.4 +14.5 89 +16 +16 1010.9 987.0
02 15.07 З 1 20 км 10/10 1000 м
[Sc]
+16.8 +14.4 86 +18 +18 1011.1 987.2
03 15.07 штиль 0 20 км 10/10 1000 м
[Sc]
+16.6 +14.5 87 +16 +16 1011.1 987.2
04 15.07 штиль 0 20 км 10/10 1000 м
[Sc]
+16.8 +14.9 89 +17 +17 1011.1 987.2
06 15.07 ЮЗ 1 15 км 9/9 1000 м
[Cu Sc]
+18.0 +14.3 79 +19 +20 1011.3 987.5 +16.2
07 15.07 З 1 20 км 10/10 1000 м
[Cu Sc]
+19.2 +15.0 77 +22 +22 комфорт 1011.2 987.6
08 15.07 СЗ 1 20 км в посл. час дождь 8/8 1000 м
[Cu Sc]
+19.6 +15.0 75 +23 +26 комфорт 1011.2 987.6
09 15.07 З 3 20 км {дождь} 6/6 1000 м
[Cu Sc]
+21.7 +14.1 62 +25 +30 комфорт 1010.9 987.4
10 15.07 СЗ 3 20 км 6/5 1000 м
[Cu Sc Ci sp]
+23.1 +13.6 55 +26 +34 жарко 1010.7 987.3
11 15.07 З 2 20 км 4/4 1000 м
[Cu Sc]
+25.0 +12.5 46 +27 +38 жарко 1010.0 986.8
12 15.07 СЗ 3 20 км 4/4 1000 м
[Cu Sc]
+25.8 +12.8 44 +28 +36 жарко 1010.0 986.8 0.2
13 15.07 СЗ 3 20 км 4/1 1000 м
[Cu med, cong Ac trans Ci sp]
+23.9 +13.3 51 +26 +35 жарко 1010.0 986.7
14 15.07 З 3 20 км 3/1 1000 м
[Cu med, cong Ac trans]
+25.3 +12.9 46 +27 +34 жарко 1009.8 986.6
15 15.07 СЗ 3 20 км 4/3 1000 м
[Cu med, cong Ac trans]
+24.4 +13.5 51 +27 +30 жарко 1009.8 986.5
16 15.07 З 2 20 км 3/3 1000 м
[Cu med, cong]
+23.7 +13.4 52 +26 +28 жарко 1009.8 986.5
17 15.07 СЗ 2 20 км 4/3 1000 м
[Cu med, cong Ac trans]
+23.2 +11.4 47 +25 +26 комфорт 1010.1 986.7
18 15.07 СЗ 2 20 км 4/1 1000 м
[Cu hum Ac trans Ci sp]
+21.2 +11.3 53 +23 +23 комфорт 1010.4 994.0 +26.0 0.2
19 15.07 штиль 0 20 км 3/0
[Ac trans Ci sp]
+19.7 +11.6 60 +21 +21 комфорт 1011.1 987.4
20 15.07 ЮЗ 1 20 км 3/0
[Ac trans Ci sp]
+18.4 +11.9 66 +20 +20 1011.6 987.8
21 15.07 СЗ 1 20 км 3/1 1000 м
[Sc Ac trans]
+17.8 +11.4 66 +19 +19 1011.9 988.1
22 15.07 В 1 20 км 3/0
[Ci sp]
+16.9 +12.4 75 +18 +18 1012.2 988.3
23 15.07 В 1 20 км 1/1 1000 м
[Sc]
+15.9 +11.5 75 +17 +17 1012.3 988.3
00 16.07 В 1 20 км 6/0
[Cs]
+15.4 +11.9 80 +16 +16 1012.3 988.2
01 16.07 В 1 20 км 9/0
[Cs]
+14.6 +11.7 83 +15 +15 1012.4 988.2
02 16.07 В 1 20 км 9/0
[Ac trans Cs]
+14.4 +11.3 82 +15 +15 1012.2 988.1
03 16.07 СВ 1 20 км 9/0
[Cs]
+14.1 +11.5 84 +14 +14 1012.4 988.3
04 16.07 штиль 0 20 км 8/0
[Ci sp]
+13.6 +11.4 87 +13 +14 1012.6 988.4
05 16.07 СВ 1 20 км 6/0
[Ci sp]
+15.3 +12.5 83 +16 +18 1012.5 988.5
06 16.07 С 1 20 км 6/0
[Ci sp]
+17.8 +11.6 67 +19 +25 1012.6 988.7 +13.5
07 16.07 СЗ 1 20 км 5/0
[Ci sp]
+20.3 +11.9 58 +23 +33 комфорт 1012.4 988.7
08 16.07 СЗ 2 20 км 5/0
[Ci sp]
+21.6 +12.1 55 +24 +36 комфорт 1012.0 988.5
09 16.07 З 2 20 км 8/1 1000 м
[Cu med, cong Ci sp]
+23.8 +12.0 48 +26 +38 жарко 1011.7 988.3
10 16.07 СЗ 2 20 км 9/3 1000 м
[Cu med, cong Ci sp]
+25.0 +11.3 42 +26 +37 жарко 1011.4 988.1
11 16.07 З 3 30 км 9/8 1000 м
[Cu Sc Ci sp]
+25.9 +9.7 36 +27 +29 жарко 1010.7 987.5
12 16.07 СЗ 3 30 км 9/9 1000 м
[Cu Sc]
+24.8 +9.7 38 +26 +27 жарко 1010.7 987.5
13 16.07 СЗ 2 30 км 8/8 1000 м
[Cu Sc]
+25.2 +10.3 39 +26 +29 жарко 1010.0 986.8
14 16.07 СЗ 3 30 км 8/4 1000 м
[Cu Sc Ci sp]
+25.5 +11.4 41 +27 +31 жарко 1009.8 986.6
15 16.07 СЗ 3 30 км 9/6 1000 м
[Cu Sc Ci sp]
+25.6 +12.1 43 +27 +29 жарко 1009.7 986.5
16 16.07 СЗ 3 30 км 9/5 1000 м
[Cu Sc Ci sp]
+24.4 +12.1 46 +26 +27 жарко 1009.9 986.6
17 16.07 СЗ 2 30 км 9/3 1000 м
[Cu hum Ci sp]
+24.1 +10.1 41 +25 +26 комфорт 1010.1 986.8
18 16.07 СЗ 1 30 км 5/3 1000 м
[Cu hum Ci sp]
+22.7 +11.4 49 +25 +25 комфорт 1010.4 987.0 +26.6
19 16.07 СЗ 1 30 км 5/3 1000 м
[Cu hum Ci sp]
+20.4 +12.4 60 +24 +24 комфорт 1011.0 987.4
20 16.07 Ю 1 30 км 5/1 1000 м
[Cu hum Ci sp]
+19.5 +12.5 64 +22 +22 комфорт 1011.5 987.8
21 16.07 штиль 0 30 км 6/6 1000 м
[Sc]
+19.6 +12.4 63 +21 +21 комфорт 1011.6 987.9
22 16.07 В 1 30 км 3/3 1000 м
[Sc]
+18.6 +13.1 70 +20 +20 1012.2 988.4
23 16.07 СВ 1 30 км 1/1 1000 м
[Sc]
+17.3 +13.2 77 +18 +18 1012.5 988.7
00 17.07 В 1 30 км ясно +16.3 +12.8 80 +17 +17 1012.6 988.7
01 17.07 В 1 30 км ясно +15.2 +12.5 84 +16 +16 1012.8 988.7
02 17.07 В 1 30 км ясно +14.5 +12.1 86 +15 +15 1012.0 988.8
03 17.07 В 1 30 км 3/0
[Ac trans]
+13.5 +11.8 89 +14 +14 1013.3 989.0
04 17.07 В 1 30 км 1/0
[Ac trans]
+13.5 +11.8 89 +14 +14 1013.4 989.2
05 17.07 В 1 30 км 1/0
[Ac trans]
+14.9 +11.9 82 +15 +18 1013.5 989.4
06 17.07 СЗ 1 30 км ясно +17.3 +12.0 71 +18 +25 1013.6 989.6 +13.4
07 17.07 ЮЗ 1 30 км ясно +20.2 +12.0 59 +23 +34 комфорт 1013.3 989.6
08 17.07 З 2 30 км ясно +22.6 +11.0 48 +25 +38 комфорт 1012.9 989.4
09 17.07 З 3 30 км ясно +25.2 +9.4 37 +26 +40 жарко 1012.2 988.9
10 17.07 СЗ 3 30 км 1/1 1000 м
[Cu hum]
+26.6 +10.5 36 +27 +41 жарко 1011.7 988.6
11 17.07 З 3 30 км 3/3 1000 м
[Cu med, cong]
+28.0 +9.9 32 +28 +39 жарко 1011.3 988.3
12 17.07 СЗ 3 30 км 3/3 1000 м
[Cu med, cong]
+28.1 +9.6 31 +28 +38 жарко 1011.1 988.1
13 17.07 СЗ 3 30 км 3/3 1000 м
[Cu med, cong]
+28.8 +9.9 31 +29 +37 жарко 1010.7 987.8
14 17.07 СЗ 3 30 км 4/4 1000 м
[Cu Sc]
+28.8 +11.5 34 +29 +34 жарко 1010.5 987.6
15 17.07 З 3 30 км 4/4 1000 м
[Cu Sc]
+28.3 +11.4 35 +29 +32 жарко 1010.4 987.5
16 17.07 СЗ 3 30 км 3/3 1000 м
[Cu Sc]
+27.2 +10.9 36 +28 +29 жарко 1010.4 987.3
17 17.07 СЗ 2 30 км 1/1 1000 м
[Cu med, cong]
+26.1 +9.8 36 +27 +27 жарко 1010.5 987.3
18 17.07 СЗ 2 30 км ясно +24.4 +10.3 41 +25 +25 комфорт 1010.9 987.6 +29.5
19 17.07 штиль 0 30 км ясно +22.0 +11.5 51 +24 +24 комфорт 1011.4 987.9
20 17.07 штиль 0 30 км ясно +19.7 +11.8 60 +21 +21 комфорт 1011.9 988.2
21 17.07 штиль 0 30 км ясно +18.6 +12.2 66 +19 +19 1012.1 988.3
22 17.07 штиль 0 30 км ясно +17.5 +12.0 70 +18 +18 1012.8 988.9
23 17.07 В 1 30 км ясно +16.7 +11.8 73 +18 +18 1012.8 988.8
00 18.07 В 1 30 км ясно +15.8 +11.2 74 +17 +17 1012.8 988.8
01 18.07 В 1 30 км ясно +15.2 +11.1 77 +16 +16 1013.0 989.0
02 18.07 ЮВ 2 30 км ясно +14.6 +11.0 79 +14 +14 1013.3 989.2
03 18.07 В 1 30 км ясно +13.8 +10.9 83 +14 +14 1013.7 989.5
04 18.07 штиль 0 30 км 3/0
[Ci fib]
+13.8 +10.9 83 +13 +14 1013.8 989.6
05 18.07 штиль 0 30 км 3/0
[Ci fib]
+15.2 +11.3 78 +15 +18 1013.7 989.6
06 18.07 В 1 30 км 4/0
[Ci fib]
+18.0 +12.8 72 +19 +25 1013.5 989.7 +13.5
07 18.07 З 1 30 км 1/0
[Ci fib]
+20.9 +13.0 61 +25 +35 комфорт 1013.3 989.7
08 18.07 ЮЗ 1 30 км ясно +22.7 +12.5 53 +25 +41 комфорт 1013.2 989.7
09 18.07 ЮЗ 1 30 км ясно +25.4 +13.8 49 +28 +47 жарко 1012.7 989.5
10 18.07 СЗ 2 30 км 1/0
[Ci sp]
+27.3 +12.3 39 +29 +47 жарко 1012.4 989.3
11 18.07 С 2 30 км 5/3 1000 м
[Cu hum Ci sp]
+28.9 +11.8 35 +30 +42 жарко 1012.0 989.0
12 18.07 СЗ 2 30 км 6/1 1000 м
[Cu hum Ci sp]
+29.5 +10.5 31 +30 +43 жарко 1011.8 988.8
13 18.07 СЗ 2 30 км 9/1 1000 м
[Cu hum Ci sp]
+29.9 +12.4 34 +31 +41 жарко 1011.7 988.8
14 18.07 СЗ 2 30 км 8/0
[Ci sp]
+30.0 +10.8 30 +30 +38 жарко 1011.5 988.7
15 18.07 З 2 30 км 8/0
[Ci sp]
+29.3 +10.7 32 +30 +35 жарко 1011.4 988.5
16 18.07 СЗ 2 30 км 8/0
[Ci sp]
+28.9 +10.3 31 +29 +31 жарко 1011.0 988.0
17 18.07 СЗ 1 30 км 5/0
[Ci sp]
+28.0 +7.7 28 +28 +28 жарко 1011.1 988.0
18 18.07 штиль 0 30 км 5/0
[Ci sp]
+25.4 +9.2 36 +26 +26 жарко 1011.6 988.3 +30.8
19 18.07 штиль 0 30 км 1/0
[Ci fib]
+23.0 +12.1 50 +26 +26 жарко 1012.4 989.0
20 18.07 В 1 30 км ясно +21.2 +12.6 58 +23 +23 комфорт 1013.0 989.4
21 18.07 СВ 1 30 км ясно +19.9 +12.4 62 +23 +23 комфорт 1013.5 989.8
22 18.07 В 1 30 км ясно +18.5 +12.6 68 +20 +20 1014.2 990.4
23 18.07 штиль 0 30 км ясно +17.5 +12.9 74 +18 +18 1014.7 990.8
00 19.07 В 1 30 км ясно +16.5 +12.2 76 +17 +17 1015.5 991.5
01 19.07 В 1 30 км ясно +16.7 +12.6 77 +18 +18 1015.6 991.6
02 19.07 В 1 30 км 1/1 1000 м
[Sc]
+16.0 +12.3 79 +17 +17 1015.9 991.9
03 19.07 В 1 30 км 1/1 1000 м
[Sc]
+15.5 +11.4 77 +16 +16 1016.2 992.1
04 19.07 штиль 0 30 км 3/3 1000 м
[Sc]
+15.4 +12.0 80 +15 +16 1016.4 992.3
05 19.07 С 1 30 км 4/4 1000 м
[Sc]
+17.1 +13.0 77 +18 +20 1016.5 992.5
06 19.07 СВ 1 30 км 9/3 1000 м
[Sc Ac trans]
+19.2 +12.8 66 +21 +24 комфорт 1016.9 993.1 +15.4
07 19.07 В 1 30 км 3/3 1000 м
[Sc]
+21.5 +13.1 59 +24 +32 комфорт 1016.9 993.3
08 19.07 СВ 1 30 км 3/1 1000 м
[Sc Ac trans]
+24.0 +13.7 53 +26 +39 жарко 1016.6 993.2
09 19.07 Ю 2 30 км 3/0
[Ac trans]
+25.7 +13.6 47 +28 +41 жарко 1016.4 993.1
10 19.07 С 1 30 км 1/0
[Ac trans]
+27.3 +13.9 44 +29 +50 жарко 1015.7 992.6
11 19.07 ЮЗ 1 30 км 4/3 1000 м
[Cu med, cong Ac trans]
+29.3 +12.2 35 +30 +44 жарко 1015.0 992.0
12 19.07 З 2 30 км 4/3 1000 м
[Cu med, cong Ci sp]
+30.7 +12.7 33 +32 +43 жарко 1014.4 991.5
13 19.07 СЗ 2 30 км 5/3 1000 м
[Cu Sc Ci sp]
+31.2 +11.7 30 +32 +41 жарко 1014.0 991.2
14 19.07 СЗ 2 30 км 9/4 1000 м
[Cu Sc Ci sp]
+31.1 +12.8 33 +32 +37 жарко 1013.9 991.0
15 19.07 В 2 30 км гроза без осадков 9/8 1000 м
[Cb cap Ci sp]
+29.3 +14.0 39 +31 +32 жарко 1014.4 991.4
16 19.07 В 3 10 км гроза, ливневой дождь 9/6 1000 м
[Cb cap Ci sp]
+21.1 +17.8 81 +25 +26 комфорт 1016.0 992.4
17 19.07 В 1 20 км в посл. час гроза {дождь} 8/4 1000 м
[Cu Sc Ci sp]
+20.9 +16.8 77 +26 +26 душно 1016.1 992.4
18 19.07 В 2 20 км {гроза, дождь} 6/3 1000 м
[Cu Sc Ci sp]
+21.0 +16.4 75 +25 +25 комфорт 1016.5 992.8 +32.0 4
19 19.07 В 2 20 км 5/3 1000 м
[Cu Sc Ci sp]
+20.5 +15.5 73 +24 +24 комфорт 1017.3 993.6
20 19.07 В 1 20 км 3/0
[Ci sp]
+20.0 +15.5 75 +23 +23 комфорт 1017.4 993.7
21 19.07 В 2 20 км 3/0
[Ci sp]
+19.3 +15.4 78 +22 +22 комфорт 1017.8 994.0
22 19.07 В 1 20 км 3/0
[Ci sp]
+18.6 +14.6 78 +20 +20 1018.1 994.2
23 19.07 В 1 20 км ясно +17.6 +14.6 83 +19 +19 1018.3 994.3
00 20.07 В 1 20 км ясно +16.8 +14.4 86 +18 +18 1018.5 994.4
01 20.07 В 1 20 км ясно +16.3 +14.4 89 +17 +17 1018.5 994.4
02 20.07 В 1 20 км ясно +16.4 +13.6 84 +17 +17 1018.5 994.4
03 20.07 В 1 20 км ясно +15.7 +13.4 86 +16 +16 1019.1 994.9
04 20.07 В 1 20 км ясно +15.3 +13.5 89 +16 +16 1019.3 995.1
05 20.07 В 1 20 км ясно +17.1 +14.0 82 +18 +21 1019.7 995.6
06 20.07 В 2 20 км ясно +19.2 +12.8 66 +21 +26 комфорт 1019.8 995.9 +15.2
07 20.07 В 1 20 км ясно +21.9 +13.6 59 +25 +36 комфорт 1019.5 995.8
08 20.07 СВ 1 20 км ясно +23.3 +13.2 53 +26 +42 жарко 1019.2 995.6
09 20.07 ЮВ 1 20 км ясно +25.6 +11.2 40 +27 +46 жарко 1018.9 995.5
10 20.07 Ю 2 30 км ясно +28.2 +11.9 36 +29 +48 жарко 1018.5 995.4
11 20.07 Ю 1 30 км ясно +30.0 +9.8 29 +30 +52 опасность
солнечного
удара
1018.0 994.9
12 20.07 З 2 30 км 1/1 1000 м
[Cu hum]
+31.3 +10.4 28 +31 +46 жарко 1017.2 994.3
13 20.07 З 2 30 км 1/1 1000 м
[Cu hum]
+31.5 +8.6 24 +30 +43 жарко 1016.7 993.8
14 20.07 ЮЗ 2 30 км 3/1 1000 м
[Cu hum Ci sp]
+32.2 +8.7 23 +31 +39 жарко 1016.5 993.6
15 20.07 З 2 30 км ясно +32.2 +8.7 23 +31 +37 жарко 1016.3 993.4
16 20.07 СЗ 2 30 км ясно +31.3 +9.7 26 +31 +33 жарко 1016.2 993.3
17 20.07 С 1 30 км ясно +30.6 +10.1 28 +30 +31 жарко 1016.2 993.3
18 20.07 штиль 0 30 км ясно +27.8 +14.2 43 +30 +30 жарко 1016.4 993.3 +33.1
20 20.07 В 1 30 км ясно +24.4 +15.7 58 +27 +27 жарко 1017.9 994.5
21 20.07 СВ 1 30 км ясно +22.2 +15.0 64 +26 +26 душно 1018.6 995.0
22 20.07 штиль 0 30 км ясно +20.5 +15.5 73 +23 +23 комфорт 1018.9 995.2
23 20.07 В 1 30 км ясно +19.8 +15.3 75 +23 +23 комфорт 1019.0 995.2
00 21.07 В 1 30 км 1/1 1000 м
[Sc]
+19.1 +14.8 76 +22 +22 комфорт 1019.0 995.2
01 21.07 штиль 0 30 км 1/1 1000 м
[Cu hum]
+18.4 +14.2 77 +19 +19 1019.2 995.3
02 21.07 штиль 0 30 км 6/6 1000 м
[Sc]
+17.2 +14.3 83 +17 +17 1019.4 995.4
03 21.07 штиль 0 30 км 4/4 1000 м
[Sc]
+16.5 +14.4 87 +16 +16 1019.6 995.5
04 21.07 штиль 0 30 км 5/5 1000 м
[Sc]
+16.7 +14.3 86 +17 +17 1019.9 995.9
05 21.07 В 1 30 км 1/1 1000 м
[Sc]
+18.6 +14.1 75 +20 +23 1020.1 996.2
06 21.07 В 1 30 км ясно +21.1 +13.8 63 +24 +30 комфорт 1020.2 996.4 +15.7
07 21.07 штиль 0 30 км ясно +23.1 +14.3 58 +27 +39 душно 1019.6 996.1
08 21.07 З 1 30 км ясно +25.8 +14.6 50 +28 +44 жарко 1019.2 995.9
09 21.07 Ю 1 30 км 1/1 1000 м
[Cu hum]
+27.7 +14.8 45 +30 +48 жарко 1019.0 995.8
10 21.07 ЮЗ 1 30 км 1/1 1000 м
[Cu med, cong]
+30.2 +15.0 40 +33 +52 опасность
солнечного
удара
1018.6 995.6
11 21.07 СЗ 2 30 км 1/1 1000 м
[Cu med, cong]
+32.4 +13.8 32 +34 +50 очень
жарко
1018.1 995.3
12 21.07 ЮЗ 1 30 км 1/1 1000 м
[Cu med, cong]
+33.0 +12.1 28 +33 +51 опасность
солнечного
удара
1017.6 994.9
13 21.07 Ю 1 30 км 1/1 1000 м
[Cu med, cong]
+34.3 +12.4 27 +35 +49 очень
жарко
1017.0 994.4
14 21.07 Ю 1 30 км 3/3 1000 м
[Cu med, cong]
+34.1 +10.9 24 +33 +41 жарко 1016.5 993.8
15 21.07 З 2 30 км 4/3 1000 м
[Cu med, cong Ci fib]
+33.7 +10.0 23 +33 +37 жарко 1016.5 993.8
16 21.07 З 2 30 км 3/1 1000 м
[Cu med, cong Ci fib]
+33.0 +9.3 23 +32 +34 жарко 1016.0 993.2

 

Местоположение метеостанции Ниш (Сербия): широта 43.33 долгота 21.90 высота над уровнем моря 202 м.

В архиве по умолчанию представлена погода в Нише за последнюю неделю. Архивные данные за месяц целиком и за предыдущие месяцы, начиная с января 2011 года, Вы можете получить, выбрав интересующий диапазон дат из раскрывающегося списка и нажав кнопку "Ввод!".


*Определитесь, кто Вы:
робот инопланетянин человек

Внимание! Время в таблицах - всемирное. Для получения местного времени необходимо прибавить поправку, которая равна 1 ч.

Смотрите также архив погоды в соседних городах и на ближайших метеорологических станциях:

Погода в Лесковаце (Сербия) (39 км)
Погода в Крушеваце (Сербия) (52 км)
Погода в Димитровграде (Сербия) (77 км)
Погода в Чуприи (Сербия) (79 км)
Погода во Вране (Черногория) (87 км)
Погода на Црни Врх (Сербия) (88 км)
Погода на Копаонике (Сербия) (89 км)
Погода в Видине (Болгария) (96 км)
Погода в Кралево (Сербия) (105 км)
Погода в Крагуеваце (Сербия) (110 км)

Пояснения к столбцам:

Ветер - указаны скорость ветра в м/с - средняя за 10 мин, порывы в срок и между сроками (в фигурных скобках) и направление, откуда дует ветер: С - северный, СВ - северо-восточный, В - восточный, ЮВ - юго-восточный, Ю - южный, ЮЗ - юго-западный, З - западный, СЗ - северо-западный.
Видимость - горизонтальная дальность видимости в метрах или километрах. При видимости от 1 до 10 км при отсутствии осадков обычно наблюдается дымка, при ухудшении видимости до 1 км и менее - туман. В сухую погоду видимость может ухудшаться дымом, пылью или мглою.
Явления - указаны атмосферные явления, наблюдавшиеся в срок или в последний час перед сроком; фигурными скобками обозначены явления, наблюдавшиеся между сроками (за 1-3 часа до срока); квадратными скобками обозначены град или гололедные отложения с указанием их диаметра в мм.
Облачность - указаны через наклонную черту общая и нижняя облачность в баллах и высота нижней границы облаков в метрах; квадратными скобками обозначены формы облаков: Ci - перистые, Cs - перисто-слоистые, Cc - перисто-кучевые, Ac - высококучевые, As - высокослоистые, Sc - слоисто-кучевые, Ns - слоисто-дождевые, Cu - кучевые, Cb - кучево-дождевые. Подробнее классификацию облаков см. в Атласе облаков (PDF).
T - Температура воздуха - температура, измеренная на высоте 2 м над землей.
Td - Температура точки росы - температура, при понижении до которой содержащийся в воздухе водяной пар достигнет насыщения.
f - Относительная влажность воздуха - влажноcть воздуха, измеренная на высоте 2 м над землей.
Te - Эффективная температура - температура, которую ощущает одетый по сезону человек в тени. Характеристика душности погоды. При расчете учитывается влияние влажности воздуха и скорости ветра на теплоощущения человека.
Tes - Эффективная температура на солнце - температура, которую ощущает человек, с поправкой на солнечный нагрев. Характеристика знойности погоды. Зависит от высоты солнца над горизонтом, облачности и скорости ветра. Ночью, в пасмурную погоду, а также при ветре 12 м/с и более поправка равна нулю.
P - Атмосферное давление - приведенное к уровню моря атмосферное давление.
Po - Атмосферное давление - измеренное на уровне метеостанции атмосферное давление.
Tmin - Минимальная температура - минимум температуры воздуха на высоте 2 м над землей.
Tmax - Максимальная температура - максимум температуры воздуха на высоте 2 м над землей.
R - Количество осадков - Количество выпавших осадков за период времени, мм. При наведении курсора мыши на число - период времени, за который выпало указанное количество осадков.
R24 - Количество осадков - Количество выпавших осадков за 24 часа, мм.
S - Снежный покров - Высота снежного покрова, см. При наведении курсора мыши на число - состояние снежного покрова и степень покрытия местности в баллах.